Location: Austin
(30.3000°N, 97.7500°W)
Time: 05:57:08
(UTC-05:00)

CZ-4 R/B - Pass Details

Date: 16 June 2025
Orbit: 677 x 744 km, 98.7° (Epoch: 07 July)

Event Time Altitude Azimuth Distance (km) Brightness Sun altitude
Rises 05:47:54 0° 14° (NNE) 3,181 8.0 -8.5°
Reaches altitude 10° 05:50:12 10° 16° (NNE) 2,258 7.2 -8.0°
Maximum altitude 05:55:10 78° 103° (ESE) 763 4.1 -7.1°
Drops below altitude 10° 06:00:07 10° 189° (S) 2,241 6.0 -6.2°
Sets 06:02:23 0° 191° (S) 3,156 6.8 -5.8°
